| time (UTC) | temp C | wind direction | speed KPH | gust KPH | rain 1hr cm | rain 24hr cm | rain mn cm | humidity % | barometer mb |
| 20260510120017 | 11 | 311 | 0.0 | 0.0 | 0.00 | 0.00 | 0.03 | 95 | 1011.5 |
| 20260510114546 | 11 | 231 | 1.6 | 0.0 | 0.00 | 0.00 | 0.03 | 95 | 1011.1 |
| 20260510113026 | 11 | 139 | 0.0 | 0.0 | 0.00 | 0.00 | 0.03 | 95 | 1010.8 |
| 20260510111602 | 10 | 321 | 0.0 | 0.0 | 0.00 | 0.00 | 0.03 | 95 | 1010.8 |
| 20260510111502 | 10 | 321 | 0.0 | 0.0 | 0.00 | 0.00 | 0.03 | 95 | 1010.8 |
| 20260510110040 | 10 | 321 | 3.2 | 0.0 | 0.00 | 0.00 | 0.03 | 95 | 1010.9 |
| 20260510104516 | 10 | 287 | 1.6 | 0.0 | 0.00 | 0.00 | 0.03 | 95 | 1010.6 |
| 20260510103054 | 9 | 283 | 1.6 | 0.0 | 0.00 | 0.00 | 0.03 | 95 | 1010.5 |
| 20260510101526 | 9 | 284 | 3.2 | 0.0 | 0.00 | 0.00 | 0.03 | 95 | 1010.3 |
| 20260510100006 | 9 | 282 | 1.6 | 0.0 | 0.00 | 0.00 | 0.03 | 95 | 1010.0 |
| 20260510094556 | 9 | 282 | 1.6 | 0.0 | 0.00 | 0.00 | 0.00 | 95 | 1010.0 |
| 20260510093020 | 8 | 282 | 0.0 | 0.0 | 0.00 | 0.00 | 0.00 | 95 | 1009.9 |
| 20260510091558 | 9 | 282 | 0.0 | 0.0 | 0.00 | 0.00 | 0.00 | 95 | 1009.8 |
| 20260510090035 | 9 | 282 | 1.6 | 0.0 | 0.00 | 0.00 | 0.00 | 95 | 1009.9 |
| 20260510084530 | 9 | 281 | 3.2 | 0.0 | 0.00 | 0.00 | 0.00 | 95 | 1010.2 |
| 20260510083110 | 9 | 325 | 6.4 | 0.0 | 0.00 | 0.00 | 0.00 | 95 | 1010.3 |
| 20260510081534 | 8 | 288 | 6.4 | 0.0 | 0.00 | 0.00 | 0.00 | 95 | 1009.5 |
| 20260510080014 | 7 | 319 | 1.6 | 0.0 | 0.00 | 0.00 | 0.00 | 94 | 1009.3 |
| 20260510074542 | 7 | 319 | 3.2 | 0.0 | 0.00 | 0.00 | 0.00 | 93 | 1009.3 |
| 20260510073029 | 7 | 11 | 0.0 | 0.0 | 0.00 | 0.00 | 0.00 | 94 | 1009.2 |
| 20260510071556 | 7 | 11 | 0.0 | 0.0 | 0.00 | 0.00 | 0.00 | 94 | 1009.1 |
| 20260510070038 | 7 | 11 | 1.6 | 0.0 | 0.00 | 0.00 | 0.00 | 94 | 1008.9 |
| 20260510064512 | 7 | 11 | 0.0 | 0.0 | 0.00 | 0.00 | 0.00 | 94 | 1008.6 |
| 20260510063050 | 7 | 11 | 0.0 | 0.0 | 0.00 | 0.00 | 0.00 | 94 | 1008.6 |
| 20260510061525 | 7 | 11 | 0.0 | 0.0 | 0.00 | 0.00 | 0.00 | 93 | 1008.7 |
| 20260510060006 | 8 | 11 | 0.0 | 0.0 | 0.00 | 0.00 | 0.00 | 94 | 1008.7 |
| 20260510054547 | 8 | 11 | 0.0 | 0.0 | 0.00 | 0.00 | 0.00 | 93 | 1008.8 |
| 20260510053019 | 8 | 11 | 0.0 | 0.0 | 0.00 | 0.00 | 0.00 | 94 | 1009.0 |
| 20260510051558 | 8 | 11 | 0.0 | 0.0 | 0.00 | 0.00 | 0.00 | 93 | 1009.3 |
| 20260510050034 | 8 | 11 | 0.0 | 0.0 | 0.00 | 0.00 | 0.00 | 93 | 1009.3 |
| 20260510044513 | 8 | 11 | 0.0 | 0.0 | 0.00 | 0.00 | 0.00 | 93 | 1009.2 |
| 20260510043048 | 8 | 11 | 0.0 | 0.0 | 0.00 | 0.00 | 0.00 | 93 | 1009.3 |
| 20260510041534 | 9 | 11 | 0.0 | 0.0 | 0.00 | 0.00 | 0.00 | 93 | 1009.4 |
| 20260510040012 | 8 | 11 | 0.0 | 0.0 | 0.00 | 0.00 | 0.00 | 93 | 1009.5 |
| 20260510034539 | 9 | 11 | 0.0 | 0.0 | 0.00 | 0.00 | 0.03 | 92 | 1009.4 |
| 20260510033015 | 10 | 11 | 0.0 | 0.0 | 0.00 | 0.00 | 0.03 | 93 | 1009.4 |
| 20260510031602 | 9 | 11 | 0.0 | 0.0 | 0.00 | 0.00 | 0.03 | 92 | 1009.3 |
| 20260510030036 | 10 | 11 | 0.0 | 0.0 | 0.00 | 0.00 | 0.03 | 92 | 1009.1 |
| 20260510024505 | 10 | 11 | 0.0 | 0.0 | 0.00 | 0.00 | 0.03 | 92 | 1009.0 |
| 20260510023045 | 10 | 11 | 0.0 | 0.0 | 0.00 | 0.00 | 0.03 | 92 | 1008.9 |
| 20260510021521 | 10 | 11 | 0.0 | 0.0 | 0.00 | 0.00 | 0.03 | 91 | 1009.1 |
| 20260510020057 | 11 | 11 | 0.0 | 0.0 | 0.00 | 0.00 | 0.03 | 91 | 1009.0 |
| 20260510014533 | 11 | 15 | 0.0 | 0.0 | 0.00 | 0.00 | 0.03 | 91 | 1008.8 |
| 20260510013012 | 11 | 15 | 0.0 | 0.0 | 0.00 | 0.00 | 0.03 | 90 | 1008.6 |
| 20260510011547 | 11 | 15 | 0.0 | 0.0 | 0.00 | 0.00 | 0.03 | 89 | 1008.6 |
| 20260510010027 | 12 | 15 | 0.0 | 0.0 | 0.00 | 0.00 | 0.03 | 87 | 1008.4 |
| 20260510004508 | 12 | 15 | 0.0 | 0.0 | 0.00 | 0.00 | 0.03 | 85 | 1008.1 |
| 20260510003043 | 13 | 15 | 0.0 | 0.0 | 0.00 | 0.00 | 0.03 | 84 | 1008.3 |
| 20260510001522 | 14 | 15 | 0.0 | 0.0 | 0.00 | 0.00 | 0.03 | 81 | 1008.1 |
| 20260510000055 | 15 | 15 | 0.0 | 0.0 | 0.00 | 0.00 | 0.03 | 79 | 1008.0 |
| 20260509234539 | 15 | 15 | 0.0 | 0.0 | 0.00 | 0.00 | 0.03 | 77 | 1008.2 |
| 20260509233011 | 16 | 15 | 0.0 | 0.0 | 0.00 | 0.00 | 0.03 | 76 | 1008.0 |
| 20260509231556 | 16 | 15 | 0.0 | 0.0 | 0.00 | 0.00 | 0.03 | 76 | 1008.1 |
| 20260509230029 | 17 | 11 | 0.0 | 0.0 | 0.00 | 0.00 | 0.03 | 76 | 1008.0 |
| 20260509224506 | 16 | 99 | 1.6 | 0.0 | 0.00 | 0.00 | 0.03 | 76 | 1007.9 |
| 20260509223045 | 16 | 59 | 0.0 | 0.0 | 0.00 | 0.00 | 0.03 | 78 | 1008.1 |
| 20260509221519 | 16 | 344 | 0.0 | 0.0 | 0.00 | 0.00 | 0.03 | 77 | 1008.1 |
| 20260509220057 | 15 | 343 | 0.0 | 0.0 | 0.00 | 0.00 | 0.03 | 78 | 1007.9 |
| 20260509214535 | 15 | 338 | 3.2 | 0.0 | 0.00 | 0.00 | 0.03 | 78 | 1007.8 |
| 20260509213013 | 15 | 360 | 3.2 | 0.0 | 0.00 | 0.00 | 0.03 | 79 | 1008.1 |
| 20260509211549 | 15 | 348 | 3.2 | 0.0 | 0.00 | 0.00 | 0.03 | 79 | 1007.9 |
| 20260509210029 | 15 | 5 | 4.8 | 0.0 | 0.00 | 0.00 | 0.03 | 81 | 1007.9 |
| 20260509204507 | 15 | 310 | 1.6 | 0.0 | 0.00 | 0.00 | 0.03 | 81 | 1008.0 |
| 20260509203041 | 15 | 302 | 0.0 | 0.0 | 0.00 | 0.00 | 0.03 | 80 | 1007.9 |
| 20260509201522 | 16 | 301 | 3.2 | 0.0 | 0.00 | 0.00 | 0.00 | 71 | 1008.2 |
| 20260509200107 | 16 | 5 | 3.2 | 0.0 | 0.00 | 0.00 | 0.00 | 71 | 1008.0 |
| 20260509194536 | 16 | 350 | 11.3 | 0.0 | 0.00 | 0.00 | 0.00 | 71 | 1008.2 |
| 20260509193013 | 15 | 355 | 9.7 | 0.0 | 0.00 | 0.00 | 0.00 | 75 | 1008.2 |
| 20260509191549 | 15 | 300 | 11.3 | 0.0 | 0.00 | 0.00 | 0.00 | 74 | 1008.4 |
| 20260509190029 | 15 | 305 | 11.3 | 0.0 | 0.00 | 0.00 | 0.00 | 75 | 1008.7 |
| 20260509184504 | 15 | 344 | 9.7 | 0.0 | 0.00 | 0.00 | 0.00 | 76 | 1009.2 |
| 20260509183044 | 15 | 316 | 8.0 | 0.0 | 0.00 | 0.00 | 0.00 | 72 | 1009.3 |
| 20260509181518 | 15 | 337 | 11.3 | 0.0 | 0.00 | 0.00 | 0.00 | 71 | 1009.3 |
| 20260509180109 | 15 | 297 | 9.7 | 0.0 | 0.00 | 0.00 | 0.00 | 74 | 1009.5 |
| 20260509174536 | 15 | 327 | 8.0 | 0.0 | 0.00 | 0.00 | 0.00 | 75 | 1009.6 |
| 20260509173012 | 15 | 314 | 8.0 | 0.0 | 0.00 | 0.00 | 0.00 | 74 | 1009.6 |
| 20260509171546 | 16 | 304 | 6.4 | 0.0 | 0.00 | 0.00 | 0.00 | 70 | 1009.7 |
| 20260509170027 | 16 | 255 | 3.2 | 0.0 | 0.00 | 0.00 | 0.00 | 68 | 1009.4 |
| 20260509164506 | 16 | 141 | 1.6 | 0.0 | 0.00 | 0.00 | 0.00 | 69 | 1009.6 |
| 20260509163049 | 16 | 140 | 0.0 | 0.0 | 0.00 | 0.00 | 0.00 | 69 | 1009.5 |
| 20260509161520 | 16 | 140 | 0.0 | 0.0 | 0.00 | 0.00 | 0.00 | 70 | 1009.3 |
| 20260509160055 | 16 | 140 | 1.6 | 0.0 | 0.00 | 0.00 | 0.00 | 72 | 1009.5 |
| 20260509154541 | 16 | 236 | 1.6 | 0.0 | 0.00 | 0.00 | 0.00 | 70 | 1010.2 |
| 20260509153011 | 16 | 250 | 1.6 | 0.0 | 0.00 | 0.00 | 0.00 | 70 | 1010.6 |
| 20260509151553 | 16 | 265 | 1.6 | 0.0 | 0.00 | 0.00 | 0.00 | 70 | 1010.5 |
| 20260509150028 | 16 | 163 | 1.6 | 0.0 | 0.00 | 0.00 | 0.00 | 70 | 1010.4 |
| 20260509144504 | 16 | 213 | 3.2 | 0.0 | 0.00 | 0.00 | 0.00 | 68 | 1010.5 |
| 20260509143049 | 16 | 119 | 1.6 | 0.0 | 0.00 | 0.00 | 0.00 | 68 | 1010.4 |
| 20260509141531 | 17 | 123 | 4.8 | 0.0 | 0.00 | 0.00 | 0.00 | 70 | 1010.3 |
| 20260509134533 | 16 | 139 | 4.8 | 0.0 | 0.00 | 0.00 | 0.00 | 73 | 1010.0 |
| 20260509133014 | 16 | 136 | 3.2 | 0.0 | 0.00 | 0.00 | 0.00 | 73 | 1010.0 |
| 20260509131546 | 15 | 161 | 3.2 | 0.0 | 0.00 | 0.00 | 0.00 | 75 | 1009.9 |
| 20260509130028 | 15 | 138 | 4.8 | 0.0 | 0.00 | 0.00 | 0.00 | 77 | 1010.0 |
| 20260509124506 | 15 | 128 | 3.2 | 0.0 | 0.00 | 0.00 | 0.00 | 78 | 1010.0 |
| 20260509123050 | 14 | 130 | 1.6 | 0.0 | 0.00 | 0.00 | 0.00 | 79 | 1010.0 |
| 20260509121521 | 13 | 151 | 3.2 | 0.0 | 0.00 | 0.00 | 0.00 | 81 | 1010.1 |